| time (UTC) | temp F | wind direction | speed knots | gust knots | rain 1hr in | rain 24hr in | rain mn in | humidity % | barometer mb |
| 20260506030004 | 75 | 360 | 6.1 | 12.2 | 0.00 | 0.00 | 0.00 | 69 | 1004.6 |
| 20260506025404 | 75 | 2 | 5.2 | 12.2 | 0.00 | 0.00 | 0.00 | 69 | 1004.7 |
| 20260506024504 | 76 | 15 | 5.2 | 11.3 | 0.00 | 0.00 | 0.00 | 69 | 1004.3 |
| 20260506023603 | 77 | 354 | 6.1 | 11.3 | 0.00 | 0.00 | 0.00 | 68 | 1003.9 |
| 20260506022725 | 78 | 352 | 5.2 | 10.4 | 0.00 | 0.00 | 0.00 | 68 | 1003.8 |
| 20260506021804 | 78 | 347 | 3.5 | 9.6 | 0.00 | 0.00 | 0.00 | 67 | 1003.4 |
| 20260506020904 | 79 | 352 | 3.5 | 8.7 | 0.00 | 0.00 | 0.00 | 68 | 1003.2 |
| 20260506020025 | 80 | 355 | 3.5 | 7.0 | 0.00 | 0.00 | 0.00 | 68 | 1002.8 |
| 20260506015404 | 80 | 11 | 1.7 | 7.0 | 0.00 | 0.00 | 0.00 | 68 | 1002.7 |
| 20260506014524 | 81 | 153 | 0.9 | 3.5 | 0.00 | 0.00 | 0.00 | 76 | 1002.5 |
| 20260506013604 | 81 | 184 | 0.0 | 1.7 | 0.00 | 0.00 | 0.00 | 76 | 1002.5 |
| 20260506012703 | 81 | 179 | 0.9 | 4.3 | 0.00 | 0.00 | 0.00 | 76 | 1002.3 |
| 20260506011804 | 81 | 161 | 1.7 | 7.0 | 0.00 | 0.00 | 0.00 | 76 | 1002.2 |
| 20260506010903 | 82 | 170 | 2.6 | 8.7 | 0.00 | 0.00 | 0.00 | 75 | 1002.2 |
| 20260506010004 | 82 | 310 | 1.7 | 6.1 | 0.00 | 0.00 | 0.00 | 75 | 1002.0 |
| 20260506005404 | 82 | 251 | 2.6 | 7.0 | 0.00 | 0.00 | 0.00 | 75 | 1001.7 |
| 20260506004504 | 82 | 181 | 2.6 | 7.0 | 0.00 | 0.00 | 0.00 | 75 | 1001.6 |
| 20260506003604 | 82 | 168 | 5.2 | 10.4 | 0.00 | 0.00 | 0.00 | 74 | 1001.4 |
| 20260506002725 | 83 | 165 | 5.2 | 10.4 | 0.00 | 0.00 | 0.00 | 73 | 1001.2 |
| 20260506001804 | 84 | 170 | 5.2 | 10.4 | 0.00 | 0.00 | 0.00 | 73 | 1001.4 |
| 20260506000924 | 84 | 164 | 5.2 | 12.2 | 0.00 | 0.00 | 0.00 | 72 | 1001.3 |
| 20260506000004 | 84 | 163 | 5.2 | 10.4 | 0.00 | 0.00 | 0.00 | 71 | 1001.0 |
| 20260505235404 | 84 | 163 | 5.2 | 9.6 | 0.00 | 0.00 | 0.00 | 71 | 1001.1 |
| 20260505234504 | 84 | 165 | 5.2 | 10.4 | 0.00 | 0.00 | 0.00 | 71 | 1001.2 |
| 20260505233603 | 85 | 163 | 4.3 | 10.4 | 0.00 | 0.00 | 0.00 | 71 | 1001.3 |
| 20260505232725 | 85 | 160 | 5.2 | 10.4 | 0.00 | 0.00 | 0.00 | 70 | 1001.2 |
| 20260505231804 | 86 | 159 | 6.1 | 12.2 | 0.00 | 0.00 | 0.00 | 70 | 1001.0 |
| 20260505230904 | 86 | 166 | 5.2 | 12.2 | 0.00 | 0.00 | 0.00 | 69 | 1001.0 |
| 20260505230004 | 86 | 163 | 5.2 | 12.2 | 0.00 | 0.00 | 0.00 | 70 | 1000.9 |
| 20260505225404 | 86 | 165 | 5.2 | 12.2 | 0.00 | 0.00 | 0.00 | 69 | 1000.9 |
| 20260505224504 | 87 | 158 | 5.2 | 10.4 | 0.00 | 0.00 | 0.00 | 69 | 1001.0 |
| 20260505223604 | 87 | 156 | 6.1 | 12.2 | 0.00 | 0.00 | 0.00 | 67 | 1000.9 |
| 20260505222704 | 88 | 161 | 6.1 | 12.2 | 0.00 | 0.00 | 0.00 | 66 | 1000.7 |
| 20260505221824 | 90 | 165 | 4.3 | 9.6 | 0.00 | 0.00 | 0.00 | 62 | 1000.6 |
| 20260505220904 | 89 | 166 | 4.3 | 9.6 | 0.00 | 0.00 | 0.00 | 59 | 1000.7 |
| 20260505220004 | 90 | 172 | 4.3 | 9.6 | 0.00 | 0.00 | 0.00 | 57 | 1000.6 |
| 20260505215425 | 90 | 181 | 4.3 | 8.7 | 0.00 | 0.00 | 0.00 | 58 | 1000.8 |
| 20260505214504 | 90 | 171 | 3.5 | 9.6 | 0.00 | 0.00 | 0.00 | 59 | 1000.8 |
| 20260505213624 | 90 | 180 | 4.3 | 10.4 | 0.00 | 0.00 | 0.00 | 59 | 1000.7 |
| 20260505212703 | 90 | 181 | 4.3 | 9.6 | 0.00 | 0.00 | 0.00 | 59 | 1000.7 |
| 20260505211824 | 90 | 172 | 5.2 | 11.3 | 0.00 | 0.00 | 0.00 | 60 | 1000.9 |
| 20260505210903 | 91 | 173 | 4.3 | 11.3 | 0.00 | 0.00 | 0.00 | 60 | 1001.0 |
| 20260505210025 | 90 | 198 | 4.3 | 10.4 | 0.00 | 0.00 | 0.00 | 60 | 1001.3 |
| 20260505205404 | 90 | 184 | 5.2 | 10.4 | 0.00 | 0.00 | 0.00 | 60 | 1001.4 |
| 20260505204504 | 90 | 169 | 4.3 | 10.4 | 0.00 | 0.00 | 0.00 | 60 | 1001.3 |
| 20260505203604 | 90 | 189 | 5.2 | 10.4 | 0.00 | 0.00 | 0.00 | 60 | 1001.4 |
| 20260505202725 | 90 | 193 | 4.3 | 10.4 | 0.00 | 0.00 | 0.00 | 60 | 1001.7 |
| 20260505201803 | 90 | 173 | 5.2 | 10.4 | 0.00 | 0.00 | 0.00 | 61 | 1001.7 |
| 20260505200904 | 89 | 185 | 5.2 | 12.2 | 0.00 | 0.00 | 0.00 | 62 | 1001.7 |
| 20260505200004 | 88 | 185 | 5.2 | 9.6 | 0.00 | 0.00 | 0.00 | 63 | 1001.7 |
| 20260505195404 | 88 | 178 | 6.1 | 11.3 | 0.00 | 0.00 | 0.00 | 62 | 1001.7 |
| 20260505194504 | 88 | 184 | 5.2 | 11.3 | 0.00 | 0.00 | 0.00 | 63 | 1001.8 |
| 20260505193604 | 88 | 197 | 4.3 | 11.3 | 0.00 | 0.00 | 0.00 | 62 | 1002.0 |
| 20260505192704 | 88 | 190 | 4.3 | 8.7 | 0.00 | 0.00 | 0.00 | 66 | 1002.1 |
| 20260505191803 | 86 | 191 | 5.2 | 9.6 | 0.00 | 0.00 | 0.00 | 65 | 1002.2 |
| 20260505190904 | 86 | 190 | 5.2 | 13.9 | 0.00 | 0.00 | 0.00 | 66 | 1002.2 |
| 20260505190004 | 86 | 189 | 5.2 | 14.8 | 0.00 | 0.00 | 0.00 | 66 | 1002.2 |
| 20260505185403 | 85 | 191 | 6.1 | 14.8 | 0.00 | 0.00 | 0.00 | 67 | 1002.4 |
| 20260505184504 | 85 | 202 | 6.1 | 13.0 | 0.00 | 0.00 | 0.00 | 67 | 1002.5 |
| 20260505183604 | 84 | 193 | 7.0 | 14.8 | 0.00 | 0.00 | 0.00 | 69 | 1002.6 |
| 20260505182703 | 84 | 179 | 6.1 | 14.8 | 0.00 | 0.00 | 0.00 | 69 | 1002.6 |
| 20260505181804 | 84 | 195 | 7.0 | 12.2 | 0.00 | 0.00 | 0.00 | 70 | 1002.7 |
| 20260505180904 | 84 | 196 | 6.1 | 13.0 | 0.00 | 0.00 | 0.00 | 70 | 1002.7 |
| 20260505180004 | 83 | 192 | 7.0 | 16.5 | 0.00 | 0.00 | 0.00 | 70 | 1002.8 |
| 20260505175404 | 83 | 197 | 7.8 | 16.5 | 0.00 | 0.00 | 0.00 | 71 | 1002.9 |
| 20260505174525 | 82 | 194 | 6.1 | 11.3 | 0.00 | 0.00 | 0.00 | 73 | 1002.8 |
| 20260505173603 | 81 | 194 | 7.0 | 14.8 | 0.00 | 0.00 | 0.00 | 73 | 1002.6 |
| 20260505172704 | 81 | 196 | 7.0 | 14.8 | 0.00 | 0.00 | 0.00 | 73 | 1002.6 |
| 20260505171825 | 81 | 189 | 7.0 | 15.6 | 0.00 | 0.00 | 0.00 | 73 | 1002.6 |
| 20260505170903 | 81 | 184 | 6.1 | 13.0 | 0.00 | 0.00 | 0.00 | 74 | 1002.5 |
| 20260505170004 | 80 | 190 | 7.8 | 14.8 | 0.00 | 0.00 | 0.00 | 75 | 1002.6 |
| 20260505165403 | 80 | 191 | 7.8 | 14.8 | 0.00 | 0.00 | 0.00 | 75 | 1002.6 |
| 20260505164525 | 80 | 188 | 7.8 | 22.6 | 0.00 | 0.00 | 0.00 | 75 | 1002.5 |
| 20260505163604 | 80 | 192 | 6.1 | 16.5 | 0.00 | 0.00 | 0.00 | 75 | 1002.5 |
| 20260505162703 | 80 | 196 | 7.0 | 13.0 | 0.00 | 0.00 | 0.00 | 76 | 1002.7 |
| 20260505161804 | 79 | 188 | 7.0 | 17.4 | 0.00 | 0.00 | 0.00 | 76 | 1002.8 |
| 20260505160903 | 79 | 190 | 7.8 | 14.8 | 0.00 | 0.00 | 0.00 | 77 | 1002.8 |
| 20260505152704 | 76 | 187 | 8.7 | 17.4 | 0.00 | 0.00 | 0.00 | 82 | 1002.6 |
| 20260505151804 | 76 | 184 | 7.0 | 15.6 | 0.00 | 0.00 | 0.00 | 82 | 1002.6 |
| 20260505150904 | 76 | 195 | 7.8 | 19.1 | 0.00 | 0.00 | 0.00 | 83 | 1002.8 |
| 20260505124503 | 70 | 187 | 6.1 | 14.8 | 0.00 | 0.00 | 0.00 | 90 | 1002.2 |
| 20260505123624 | 70 | 179 | 5.2 | 13.9 | 0.00 | 0.00 | 0.00 | 90 | 1002.1 |
| 20260505122704 | 70 | 181 | 6.1 | 13.9 | 0.00 | 0.00 | 0.00 | 90 | 1002.0 |
| 20260505121825 | 70 | 179 | 5.2 | 12.2 | 0.00 | 0.00 | 0.00 | 90 | 1002.1 |
| 20260505120904 | 69 | 180 | 5.2 | 15.6 | 0.00 | 0.00 | 0.00 | 90 | 1001.9 |
| 20260505120024 | 69 | 177 | 5.2 | 10.4 | 0.00 | 0.00 | 0.00 | 90 | 1001.7 |
| 20260505115403 | 69 | 180 | 5.2 | 15.6 | 0.00 | 0.00 | 0.00 | 90 | 1001.8 |
| 20260505114503 | 69 | 185 | 6.1 | 15.6 | 0.00 | 0.00 | 0.00 | 90 | 1001.8 |
| 20260505113624 | 69 | 176 | 6.1 | 15.6 | 0.00 | 0.00 | 0.00 | 90 | 1001.8 |
| 20260505112703 | 69 | 178 | 6.1 | 13.0 | 0.00 | 0.00 | 0.00 | 90 | 1001.6 |
| 20260505111803 | 69 | 178 | 5.2 | 13.0 | 0.00 | 0.00 | 0.00 | 90 | 1001.7 |
| 20260505110903 | 69 | 180 | 6.1 | 13.9 | 0.00 | 0.00 | 0.00 | 90 | 1001.5 |
| 20260505101803 | 70 | 172 | 6.1 | 13.9 | 0.00 | 0.00 | 0.00 | 89 | 1001.7 |
| 20260505100925 | 70 | 181 | 6.1 | 12.2 | 0.00 | 0.00 | 0.00 | 89 | 1001.7 |
| 20260505100003 | 70 | 179 | 6.1 | 13.9 | 0.00 | 0.00 | 0.00 | 89 | 1001.9 |
| 20260505095404 | 70 | 180 | 6.1 | 13.9 | 0.00 | 0.00 | 0.00 | 88 | 1001.8 |
| 20260505094503 | 70 | 186 | 7.0 | 13.9 | 0.00 | 0.00 | 0.00 | 88 | 1001.8 |
| 20260505093603 | 70 | 182 | 7.0 | 13.9 | 0.00 | 0.00 | 0.00 | 88 | 1002.0 |
| 20260505092724 | 71 | 180 | 7.0 | 19.1 | 0.00 | 0.00 | 0.00 | 88 | 1001.9 |
| 20260505091803 | 71 | 183 | 8.7 | 15.6 | 0.00 | 0.00 | 0.00 | 87 | 1002.1 |
| 20260505090903 | 71 | 184 | 7.8 | 14.8 | 0.00 | 0.00 | 0.00 | 87 | 1002.1 |
| 20260505090004 | 71 | 184 | 7.0 | 14.8 | 0.00 | 0.00 | 0.00 | 88 | 1002.2 |
| 20260505085403 | 71 | 179 | 7.0 | 16.5 | 0.00 | 0.00 | 0.00 | 88 | 1002.2 |
| 20260505084504 | 70 | 185 | 7.0 | 15.6 | 0.00 | 0.00 | 0.00 | 88 | 1002.0 |
| 20260505083603 | 70 | 181 | 6.1 | 12.2 | 0.00 | 0.00 | 0.00 | 88 | 1002.0 |
| 20260505082704 | 70 | 175 | 7.8 | 20.0 | 0.00 | 0.00 | 0.00 | 88 | 1002.0 |
| 20260505081803 | 70 | 177 | 7.8 | 14.8 | 0.00 | 0.00 | 0.00 | 88 | 1002.2 |
| 20260505080903 | 70 | 177 | 7.0 | 13.0 | 0.00 | 0.00 | 0.00 | 88 | 1002.2 |
| 20260505080004 | 70 | 173 | 7.0 | 13.9 | 0.00 | 0.00 | 0.00 | 87 | 1002.2 |
| 20260505075403 | 70 | 171 | 7.0 | 14.8 | 0.00 | 0.00 | 0.00 | 87 | 1002.5 |
| 20260505074524 | 70 | 166 | 7.0 | 15.6 | 0.00 | 0.00 | 0.00 | 87 | 1002.5 |
| 20260505073603 | 71 | 174 | 7.0 | 15.6 | 0.00 | 0.00 | 0.00 | 86 | 1002.7 |
| 20260505072703 | 71 | 174 | 7.0 | 13.0 | 0.00 | 0.00 | 0.00 | 86 | 1002.8 |
| 20260505071804 | 71 | 170 | 6.1 | 13.9 | 0.00 | 0.00 | 0.00 | 86 | 1002.9 |
| 20260505070903 | 71 | 170 | 7.8 | 13.9 | 0.00 | 0.00 | 0.00 | 85 | 1003.1 |
| 20260505070004 | 71 | 173 | 7.0 | 20.0 | 0.00 | 0.00 | 0.00 | 85 | 1003.3 |
| 20260505065424 | 71 | 171 | 7.0 | 13.0 | 0.00 | 0.00 | 0.00 | 84 | 1003.2 |
| 20260505064503 | 72 | 173 | 7.0 | 16.5 | 0.00 | 0.00 | 0.00 | 84 | 1003.3 |
| 20260505063603 | 72 | 176 | 7.0 | 13.9 | 0.00 | 0.00 | 0.00 | 83 | 1003.6 |
| 20260505062704 | 72 | 171 | 7.0 | 13.0 | 0.00 | 0.00 | 0.00 | 83 | 1003.5 |
| 20260505061803 | 72 | 171 | 7.0 | 16.5 | 0.00 | 0.00 | 0.00 | 82 | 1003.6 |
| 20260505060903 | 72 | 167 | 7.0 | 13.9 | 0.00 | 0.00 | 0.00 | 82 | 1003.6 |
| 20260505060024 | 72 | 172 | 6.1 | 14.8 | 0.00 | 0.00 | 0.00 | 81 | 1003.6 |
| 20260505055424 | 72 | 169 | 6.1 | 14.8 | 0.00 | 0.00 | 0.00 | 81 | 1003.5 |
| 20260505054524 | 72 | 167 | 7.0 | 17.4 | 0.00 | 0.00 | 0.00 | 80 | 1003.6 |
| 20260505053603 | 73 | 167 | 6.1 | 14.8 | 0.00 | 0.00 | 0.00 | 79 | 1003.4 |
| 20260505052724 | 73 | 168 | 6.1 | 13.0 | 0.00 | 0.00 | 0.00 | 79 | 1003.6 |
| 20260505051803 | 73 | 169 | 7.0 | 17.4 | 0.00 | 0.00 | 0.00 | 78 | 1003.8 |
| 20260505050925 | 73 | 168 | 7.0 | 15.6 | 0.00 | 0.00 | 0.00 | 77 | 1003.8 |
| 20260505040903 | 74 | 171 | 7.0 | 13.9 | 0.00 | 0.00 | 0.00 | 75 | 1004.2 |
| 20260505040004 | 74 | 167 | 7.0 | 14.8 | 0.00 | 0.00 | 0.00 | 74 | 1004.1 |
| 20260505035403 | 75 | 171 | 7.0 | 20.9 | 0.00 | 0.00 | 0.00 | 74 | 1004.1 |
| 20260505034504 | 75 | 171 | 7.0 | 13.9 | 0.00 | 0.00 | 0.00 | 74 | 1004.3 |
| 20260505033603 | 75 | 168 | 6.1 | 17.4 | 0.00 | 0.00 | 0.00 | 74 | 1003.9 |
| 20260505032703 | 75 | 167 | 5.2 | 14.8 | 0.00 | 0.00 | 0.00 | 74 | 1003.9 |
| 20260505031803 | 75 | 170 | 7.0 | 15.6 | 0.00 | 0.00 | 0.00 | 74 | 1004.0 |
| 20260505030903 | 75 | 168 | 6.1 | 13.9 | 0.00 | 0.00 | 0.00 | 74 | 1004.1 |